Location: Kellogg
(38.0159°N, 90.0546°W)
Time: 22:37:28
(UTC+00:00)

Transit 4A - Pass Details

Date: 20 September 2024
Orbit: 864 x 978 km, 66.8° (Epoch: 12 October)

Event Time Altitude Azimuth Distance (km) Brightness Sun altitude
Rises 08:53:00 0° 247° (WSW) 3,454 - -33.3°
Reaches altitude 10° 08:56:02 10° 262° (W) 2,532 - -32.8°
Maximum altitude 09:00:31 22° 313° (NW) 1,834 - -32.1°
Exits shadow 09:02:21 19° 338° (NNW) 1,980 9.6 -31.8°
Drops below altitude 10° 09:05:07 10° 3° (N) 2,593 10.6 -31.3°
Sets 09:08:16 0° 18° (NNE) 3,560 11.6 -30.7°
